www.pogodaiklimat.ru

Погода и климат >> Архив погоды >> Мексика >> Sn. Cristobal Las Casas


ПОГОДА в Sn. Cristobal Las Casas

  • Прогноз погоды в Sn. Cristobal Las Casas
  • Монитор погоды в Sn. Cristobal Las Casas
  • Климат города

АРХИВ ПОГОДЫ в Sn. Cristobal Las Casas

Время (UTC), дата Ветер
(напр.,м/с)
 
Видим.   Явления Облачность Т
(С)
Тd
(С)
f
(%)
Тe
(С)
Тes
(С)
Комфортность P
(гПа)
Po
(гПа)
Тmin
(С)
Tmax
(С)
R
(мм)
R24
(мм)
S
(см)
03 16.07 ЮВ 1 3000 м 3/3 120 м
[St]
+15.5 +14.6 94 +16 +16 1014.7 797.9
06 16.07 штиль 0 3000 м 4/4 60 м
[St]
+15.0 +14.6 97 +15 +15 1015.3 797.9 +11.4 +24.0
12 16.07 штиль 0 10 км 4/0
[Ac trans]
+13.2 +12.8 97 +13 +13 1017.4 797.1 +12.2 +24.0
15 16.07 СВ 1 10 км ясно +18.4 +14.1 76 +20 +33 опасность
простуды
1019.6 798.3
18 16.07 СВ 1 10 км 9/3 210 м
[Cu med, cong Ac trans]
+20.3 +19.2 93 +25 +34 комфорт 1018.8 798.5 +12.2 +22.0
21 16.07 В 3 10 км 10/6 180 м
[St As op]
+19.2 +17.5 90 +21 +22 комфорт 1016.4 797.6
00 17.07 В 3 10 км 4/1 200 м
[St Ci]
+19.4 +17.6 89 +22 +22 комфорт 1014.8 797.2 +12.2 +22.8
03 17.07 В 1 3000 м 8/0 2000 м
[As op]
+15.6 +14.6 94 +16 +16 1016.0 798.5
06 17.07 ЮВ 1 3000 м 9/0 2000 м
[As trans]
+13.8 +13.1 96 +14 +14 1017.8 798.5 +12.2 +22.8
09 17.07 штиль 0 3000 м ясно +12.4 +12.1 98 +12 +12 1018.0 797.8
12 17.07 штиль 0 10 км 3/0
[Ci]
+11.0 +10.6 97 +10 +10 1020.6 798.5 +10.0 +22.8
15 17.07 ЮВ 3 10 км 4/0 2000 м
[Ac trans]
+19.0 +17.2 89 +21 +28 комфорт 1021.3 799.9
18 17.07 В 4 10 км 1/1 300 м
[St]
+23.0 +20.6 86 +30 +44 очень
душно
1019.1 798.5 +10.0 +23.6
21 17.07 СВ 6 10 км 3/3 420 м
[Cu med, cong]
+22.4 +19.2 82 +28 +32 душно 1016.1 797.8
00 18.07 ЮВ 4 10 км 1/1 200 м
[St]
+20.8 +18.6 87 +25 +25 комфорт 1013.6 797.5 +10.0 +24.0
03 18.07 СВ 1 3000 м ясно +15.5 +14.7 95 +16 +16 1014.9 798.6
06 18.07 штиль 0 3000 м ясно +14.3 +13.8 97 +14 +14 1017.2 799.2 +10.0 +24.0
09 18.07 штиль 0 3000 м 3/3 30 м
[St]
+14.4 +14.1 98 +14 +14 1017.2 797.8
12 18.07 штиль 0 10 км ясно +13.0 +12.7 98 +12 +12 1019.0 797.9 +11.5 +24.0
15 18.07 ЮВ 2 10 км 1/0
[Ac trans]
+20.4 +18.2 87 +25 +35 комфорт 1018.7 797.8
18 18.07 СВ 3 10 км 3/1 330 м
[St Ac lent]
+22.8 +20.2 85 +29 +43 очень
душно
1016.0 796.9 +11.5 +23.8
21 18.07 В 3 10 км 5/5 750 м
[Sc]
+21.0 +15.1 69 +25 +30 комфорт 1013.2 796.1
00 19.07 В 2 10 км 9/4 600 м
[St As trans]
+18.4 +13.6 74 +19 +20 1012.0 796.0 +11.5 +24.4
03 19.07 В 1 3000 м {морось} 8/3 270 м
[St As trans]
+15.2 +13.2 88 +16 +16 1014.3 797.6 0.1
06 19.07 СВ 2 3000 м {морось} 10/0 2000 м
[As trans]
+15.0 +11.6 80 +15 +15 1015.7 797.8 0.1
09 19.07 СВ 1 3000 м 8/8 240 м
[St]
+14.8 +12.8 88 +15 +15 1015.2 796.0
12 19.07 СВ 2 10 км 8/4 360 м
[St Ac trans]
+15.0 +12.3 84 +15 +15 1016.4 796.1 +14.5 +24.4
15 19.07 ЮЗ 1 10 км ясно +20.0 +12.4 62 +20 +33 опасность
простуды
1016.5 796.3
18 19.07 В 3 10 км 4/4 1300 м
[Sc]
+24.6 +14.4 53 +27 +38 жарко 1014.1 795.8 +14.5 +25.2
21 19.07 СВ 1 9000 м 9/9 450 м
[St]
+23.4 +19.7 80 +30 +32 очень
душно
1010.8 794.8
00 20.07 СВ 2 10 км 8/0
[Ac cuf]
+19.2 +18.3 95 +22 +22 комфорт 1010.2 795.1 +14.5 +26.4
03 20.07 СВ 1 3000 м ясно +16.4 +15.5 94 +17 +17 1012.3 796.8
09 20.07 штиль 0 3000 м ясно +10.6 +10.6 100 +10 +10 1016.1 796.3
12 20.07 штиль 0 3000 м ясно +9.2 +8.8 97 +8 +8 1018.7 796.6 +8.0 +26.4
15 20.07 штиль 0 10 км ясно +19.0 +13.6 71 +18 +33 опасность
простуды
1019.1 796.5
18 20.07 СВ 3 10 км ясно +22.8 +19.3 81 +29 +47 очень
душно
1017.4 796.3 +8.0 +24.6
21 20.07 С 3 10 км 5/5 400 м
[St]
+23.4 +20.0 81 +30 +36 очень
душно
1013.8 795.5
00 21.07 В 3 10 км 3/3 300 м
[St]
+21.0 +18.3 85 +26 +26 душно 1011.4 795.6 +8.0 +24.8
03 21.07 В 1 3000 м ясно +15.8 +15.5 98 +16 +16 1012.3 796.7
06 21.07 штиль 0 3000 м 5/0
[As trans]
+14.0 +13.7 98 +14 +14 1014.9 797.5 +8.0 +24.8
09 21.07 штиль 0 3000 м 4/0
[As trans]
+13.4 +13.1 98 +13 +13 1015.0 796.0
12 21.07 штиль 0 8000 м ясно +12.0 +11.7 98 +11 +11 1016.8 795.9 +11.2 +24.8
15 21.07 штиль 0 10 км ясно +19.2 +17.1 88 +21 +36 комфорт 1017.7 796.4
18 21.07 Ю 2 10 км 5/0
[Ac trans]
+23.4 +21.4 89 +32 +47 очень
душно
1015.2 795.8 +11.2 +24.8
21 21.07 ЮЗ 1 10 км {морось} 9/9 120 м
[Frnb]
+18.2 +17.7 97 +20 +21 1013.3 795.5 0.3
00 22.07 СВ 2 10 км 6/6 100 м
[Frnb]
+18.8 +17.6 93 +21 +21 комфорт 1012.6 796.0 +11.2 +24.8
03 22.07 В 1 3000 м 6/6 120 м
[Frnb]
+16.4 +15.6 95 +17 +17 1014.3 797.5
06 22.07 СВ 1 3000 м 6/6 90 м
[Frnb]
+15.9 +15.3 96 +17 +17 1016.2 797.9 +11.2 +24.8
09 22.07 ЮВ 1 3000 м 5/5 60 м
[Frnb]
+15.0 +14.7 98 +15 +15 1015.5 796.5
12 22.07 СВ 1 10 км 3/0
[As op]
+14.3 +13.8 97 +15 +15 1015.8 795.9 +13.4 +24.8
15 22.07 СВ 2 10 км 6/0
[Ci]
+18.2 +13.7 75 +19 +29 1016.9 796.8
18 22.07 ЮВ 3 10 км 3/3 750 м
[Cu hum]
+23.8 +17.6 68 +28 +41 душно 1014.9 796.2 +13.4 +24.4
21 22.07 СВ 4 10 км 4/4 420 м
[Cu hum]
+23.6 +20.5 83 +29 +35 душно 1012.4 795.6
00 23.07 В 3 10 км 9/1 100 м
[St As op Ci]
+20.2 +19.0 93 +24 +24 комфорт 1011.2 795.8 +13.4 +24.8

 

Местоположение метеостанции Sn. Cristobal Las Casas (Мексика): широта 16.75 долгота -92.63 высота над уровнем моря 2276 м.

В архиве по умолчанию представлена погода в Sn. Cristobal Las Casas за последнюю неделю. Архивные данные за месяц целиком и за предыдущие месяцы, начиная с января 2011 года, Вы можете получить, выбрав интересующий диапазон дат из раскрывающегося списка и нажав кнопку "Ввод!".


*Определитесь, кто Вы:
робот инопланетянин человек

Внимание! Время в таблицах - всемирное. Для получения местного времени необходимо прибавить поправку, которая в Sn. Cristobal Las Casas равна -6 ч.

Смотрите также архив погоды в соседних городах и на ближайших метеорологических станциях:

Погода в Tuxtla Gutierrez (Мексика) (53 км)
Погода в Comitan (Мексика) (77 км)
Погода в Villahermosa (Мексика) (140 км)
Погода в Arriaga (Мексика) (147 км)
Погода в Huehuetenango (Гватемала) (202 км)
Погода в Tapachula City (Мексика) (208 км)
Погода в Coatzacoalcos (Мексика) (243 км)
Погода в Salina Cruz (Мексика) (280 км)
Погода в Flores (Гватемала) (293 км)
Погода в Guatemala (Гватемала) (331 км)

Пояснения к столбцам:

Ветер - указаны скорость ветра в м/с - средняя за 10 мин, порывы в срок и между сроками (в фигурных скобках) и направление, откуда дует ветер: С - северный, СВ - северо-восточный, В - восточный, ЮВ - юго-восточный, Ю - южный, ЮЗ - юго-западный, З - западный, СЗ - северо-западный.
Видимость - горизонтальная дальность видимости в метрах или километрах. При видимости от 1 до 10 км при отсутствии осадков обычно наблюдается дымка, при ухудшении видимости до 1 км и менее - туман. В сухую погоду видимость может ухудшаться дымом, пылью или мглою.
Явления - указаны атмосферные явления, наблюдавшиеся в срок или в последний час перед сроком; фигурными скобками обозначены явления, наблюдавшиеся между сроками (за 1-3 часа до срока); квадратными скобками обозначены град или гололедные отложения с указанием их диаметра в мм.
Облачность - указаны через наклонную черту общая и нижняя облачность в баллах и высота нижней границы облаков в метрах; квадратными скобками обозначены формы облаков: Ci - перистые, Cs - перисто-слоистые, Cc - перисто-кучевые, Ac - высококучевые, As - высокослоистые, Sc - слоисто-кучевые, Ns - слоисто-дождевые, Cu - кучевые, Cb - кучево-дождевые. Подробнее классификацию облаков см. в Атласе облаков (PDF).
T - Температура воздуха - температура, измеренная на высоте 2 м над землей.
Td - Температура точки росы - температура, при понижении до которой содержащийся в воздухе водяной пар достигнет насыщения.
f - Относительная влажность воздуха - влажноcть воздуха, измеренная на высоте 2 м над землей.
Te - Эффективная температура - температура, которую ощущает одетый по сезону человек в тени. Характеристика душности погоды. При расчете учитывается влияние влажности воздуха и скорости ветра на теплоощущения человека.
Tes - Эффективная температура на солнце - температура, которую ощущает человек, с поправкой на солнечный нагрев. Характеристика знойности погоды. Зависит от высоты солнца над горизонтом, облачности и скорости ветра. Ночью, в пасмурную погоду, а также при ветре 12 м/с и более поправка равна нулю.
P - Атмосферное давление - приведенное к уровню моря атмосферное давление.
Po - Атмосферное давление - измеренное на уровне метеостанции атмосферное давление.
Tmin - Минимальная температура - минимум температуры воздуха на высоте 2 м над землей.
Tmax - Максимальная температура - максимум температуры воздуха на высоте 2 м над землей.
R - Количество осадков - Количество выпавших осадков за период времени, мм. При наведении курсора мыши на число - период времени, за который выпало указанное количество осадков.
R24 - Количество осадков - Количество выпавших осадков за 24 часа, мм.
S - Снежный покров - Высота снежного покрова, см. При наведении курсора мыши на число - состояние снежного покрова и степень покрытия местности в баллах.